| time (UTC) | temp F | wind direction | speed MPH | gust MPH | rain 1hr in | rain 24hr in | rain mn in | humidity % | barometer mb |
| 20260904220120 | 82 | 196 | 0.0 | 2.0 | 0.00 | 0.00 | 0.00 | 83 | 1016.1 |
| 20260904215553 | 82 | 196 | 0.0 | 2.0 | 0.00 | 0.00 | 0.00 | 82 | 1016.2 |
| 20260904215053 | 83 | 0 | 0.0 | 3.0 | 0.00 | 0.00 | 0.00 | 81 | 1016.2 |
| 20260904214603 | 83 | 0 | 1.0 | 3.0 | 0.00 | 0.00 | 0.00 | 82 | 1016.0 |
| 20260904214053 | 83 | 193 | 1.0 | 3.0 | 0.00 | 0.00 | 0.00 | 81 | 1016.0 |
| 20260904213555 | 83 | 215 | 0.0 | 3.0 | 0.00 | 0.00 | 0.00 | 79 | 1015.9 |
| 20260904213101 | 83 | 168 | 0.0 | 4.0 | 0.00 | 0.00 | 0.00 | 79 | 1016.2 |
| 20260904212551 | 84 | 140 | 0.0 | 4.0 | 0.00 | 0.00 | 0.00 | 78 | 1016.1 |
| 20260904212053 | 84 | 94 | 0.0 | 4.0 | 0.00 | 0.00 | 0.00 | 76 | 1016.4 |
| 20260904211601 | 84 | 311 | 0.0 | 4.0 | 0.00 | 0.00 | 0.00 | 77 | 1016.4 |
| 20260904211049 | 85 | 32 | 0.0 | 4.0 | 0.00 | 0.00 | 0.00 | 76 | 1016.4 |
| 20260904210552 | 85 | 0 | 0.0 | 3.0 | 0.00 | 0.00 | 0.00 | 76 | 1016.3 |
| 20260904210107 | 86 | 216 | 2.0 | 3.0 | 0.00 | 0.00 | 0.00 | 76 | 1016.5 |
| 20260904205554 | 86 | 211 | 1.0 | 2.0 | 0.00 | 0.01 | 0.00 | 75 | 1016.4 |
| 20260904205053 | 87 | 0 | 0.0 | 2.0 | 0.00 | 0.01 | 0.00 | 74 | 1016.4 |
| 20260904204558 | 88 | 148 | 0.0 | 2.0 | 0.00 | 0.01 | 0.00 | 72 | 1016.4 |
| 20260904204053 | 88 | 148 | 1.0 | 2.0 | 0.00 | 0.01 | 0.00 | 70 | 1016.3 |
| 20260904203553 | 89 | 0 | 0.0 | 0.0 | 0.00 | 0.01 | 0.00 | 70 | 1016.3 |
| 20260904203102 | 90 | 0 | 0.0 | 1.0 | 0.00 | 0.01 | 0.00 | 70 | 1016.2 |
| 20260904202549 | 91 | 0 | 0.0 | 1.0 | 0.00 | 0.01 | 0.00 | 69 | 1016.5 |
| 20260904202056 | 91 | 0 | 0.0 | 1.0 | 0.00 | 0.01 | 0.00 | 67 | 1016.4 |
| 20260904201600 | 92 | 0 | 0.0 | 3.0 | 0.00 | 0.01 | 0.00 | 64 | 1016.6 |
| 20260904201049 | 92 | 0 | 0.0 | 3.0 | 0.00 | 0.01 | 0.00 | 63 | 1016.5 |
| 20260904200554 | 92 | 0 | 0.0 | 0.0 | 0.00 | 0.01 | 0.00 | 67 | 1016.6 |
| 20260904200059 | 92 | 0 | 0.0 | 0.0 | 0.00 | 0.01 | 0.00 | 65 | 1016.6 |
| 20260904195549 | 92 | 0 | 0.0 | 0.0 | 0.00 | 0.23 | 0.00 | 66 | 1016.8 |
| 20260904195052 | 91 | 0 | 0.0 | 2.0 | 0.00 | 0.23 | 0.00 | 67 | 1016.9 |
| 20260904194612 | 92 | 0 | 0.0 | 2.0 | 0.00 | 0.23 | 0.00 | 64 | 1017.1 |
| 20260904194053 | 92 | 90 | 0.0 | 2.0 | 0.00 | 0.23 | 0.00 | 65 | 1017.1 |
| 20260904193553 | 91 | 0 | 0.0 | 2.0 | 0.00 | 0.23 | 0.00 | 66 | 1017.3 |
| 20260904193115 | 91 | 0 | 0.0 | 4.0 | 0.00 | 0.23 | 0.00 | 64 | 1017.4 |
| 20260904192552 | 92 | 269 | 0.0 | 4.0 | 0.00 | 0.23 | 0.00 | 62 | 1017.5 |
| 20260904192053 | 92 | 229 | 0.0 | 0.0 | 0.00 | 0.23 | 0.00 | 63 | 1017.5 |
| 20260904191600 | 92 | 0 | 0.0 | 0.0 | 0.00 | 0.23 | 0.00 | 67 | 1017.5 |
| 20260904191050 | 91 | 0 | 0.0 | 1.0 | 0.00 | 0.23 | 0.00 | 64 | 1017.6 |
| 20260904190554 | 91 | 0 | 0.0 | 1.0 | 0.00 | 0.23 | 0.00 | 64 | 1017.8 |
| 20260904190059 | 91 | 0 | 0.0 | 2.0 | 0.00 | 0.23 | 0.00 | 66 | 1017.7 |
| 20260904185549 | 91 | 0 | 0.0 | 2.0 | 0.00 | 0.23 | 0.00 | 69 | 1017.7 |
| 20260904185057 | 91 | 0 | 0.0 | 2.0 | 0.00 | 0.23 | 0.00 | 70 | 1017.6 |
| 20260904184621 | 90 | 205 | 0.0 | 2.0 | 0.00 | 0.23 | 0.00 | 73 | 1017.7 |
| 20260904184053 | 90 | 0 | 0.0 | 2.0 | 0.00 | 0.23 | 0.00 | 72 | 1018.0 |
| 20260904183554 | 91 | 0 | 0.0 | 2.0 | 0.00 | 0.23 | 0.00 | 71 | 1018.0 |
| 20260904183102 | 91 | 290 | 0.0 | 2.0 | 0.00 | 0.23 | 0.00 | 71 | 1018.0 |
| 20260904182552 | 91 | 256 | 0.0 | 2.0 | 0.00 | 0.23 | 0.00 | 69 | 1018.1 |
| 20260904182052 | 90 | 0 | 0.0 | 2.0 | 0.00 | 0.23 | 0.00 | 70 | 1018.2 |
| 20260904181612 | 90 | 0 | 0.0 | 2.0 | 0.00 | 0.23 | 0.00 | 67 | 1018.1 |
| 20260904181050 | 90 | 0 | 0.0 | 3.0 | 0.00 | 0.23 | 0.00 | 69 | 1018.2 |
| 20260904180553 | 90 | 0 | 0.0 | 3.0 | 0.00 | 0.23 | 0.00 | 66 | 1018.3 |
| 20260904180116 | 90 | 0 | 1.0 | 3.0 | 0.00 | 0.23 | 0.00 | 64 | 1018.4 |
| 20260904175554 | 90 | 0 | 0.0 | 4.0 | 0.00 | 0.23 | 0.00 | 68 | 1018.4 |
| 20260904175054 | 90 | 0 | 1.0 | 4.0 | 0.00 | 0.23 | 0.00 | 70 | 1018.5 |
| 20260904174620 | 89 | 0 | 0.0 | 1.0 | 0.00 | 0.23 | 0.00 | 74 | 1018.5 |
| 20260904174053 | 89 | 0 | 0.0 | 2.0 | 0.00 | 0.23 | 0.00 | 73 | 1018.6 |
| 20260904173554 | 89 | 0 | 0.0 | 3.0 | 0.00 | 0.23 | 0.00 | 72 | 1018.7 |
| 20260904173107 | 89 | 0 | 0.0 | 4.0 | 0.00 | 0.23 | 0.00 | 74 | 1018.8 |
| 20260904172553 | 89 | 128 | 1.0 | 4.0 | 0.00 | 0.23 | 0.00 | 69 | 1018.9 |
| 20260904172056 | 89 | 46 | 0.0 | 3.0 | 0.00 | 0.23 | 0.00 | 74 | 1018.9 |
| 20260904171604 | 89 | 0 | 0.0 | 3.0 | 0.00 | 0.23 | 0.00 | 75 | 1019.0 |
| 20260904171052 | 88 | 240 | 0.0 | 4.0 | 0.00 | 0.23 | 0.00 | 74 | 1019.0 |
| 20260904170552 | 88 | 169 | 0.0 | 4.0 | 0.00 | 0.23 | 0.00 | 75 | 1019.2 |
| 20260904170059 | 88 | 130 | 1.0 | 3.0 | 0.00 | 0.23 | 0.00 | 70 | 1019.2 |
| 20260904165552 | 88 | 119 | 0.0 | 3.0 | 0.00 | 0.23 | 0.00 | 72 | 1019.2 |
| 20260904165049 | 87 | 0 | 1.0 | 3.0 | 0.00 | 0.23 | 0.00 | 75 | 1019.1 |
| 20260904164607 | 87 | 0 | 0.0 | 2.0 | 0.00 | 0.23 | 0.00 | 74 | 1019.1 |
| 20260904164052 | 87 | 0 | 0.0 | 2.0 | 0.00 | 0.23 | 0.00 | 75 | 1019.3 |
| 20260904163553 | 87 | 0 | 0.0 | 2.0 | 0.00 | 0.23 | 0.00 | 77 | 1019.3 |
| 20260904163109 | 87 | 0 | 0.0 | 2.0 | 0.00 | 0.23 | 0.00 | 74 | 1019.3 |
| 20260904162553 | 88 | 261 | 0.0 | 1.0 | 0.00 | 0.23 | 0.00 | 75 | 1019.3 |
| 20260904162053 | 88 | 0 | 0.0 | 1.0 | 0.00 | 0.23 | 0.00 | 76 | 1019.5 |
| 20260904161600 | 87 | 0 | 0.0 | 1.0 | 0.00 | 0.23 | 0.00 | 78 | 1019.5 |
| 20260904161055 | 87 | 0 | 0.0 | 0.0 | 0.00 | 0.23 | 0.00 | 81 | 1019.6 |
| 20260904160552 | 86 | 0 | 0.0 | 2.0 | 0.00 | 0.23 | 0.00 | 80 | 1019.5 |
| 20260904160106 | 85 | 0 | 0.0 | 2.0 | 0.00 | 0.23 | 0.00 | 79 | 1019.6 |
| 20260904155551 | 85 | 256 | 0.0 | 3.0 | 0.00 | 0.23 | 0.00 | 79 | 1019.6 |
| 20260904155056 | 85 | 0 | 1.0 | 3.0 | 0.00 | 0.23 | 0.00 | 77 | 1019.7 |
| 20260904154606 | 86 | 0 | 0.0 | 2.0 | 0.00 | 0.23 | 0.00 | 81 | 1019.7 |
| 20260904154054 | 85 | 0 | 0.0 | 2.0 | 0.00 | 0.23 | 0.00 | 78 | 1019.7 |
| 20260904153553 | 85 | 0 | 0.0 | 3.0 | 0.00 | 0.23 | 0.00 | 78 | 1019.7 |
| 20260904153112 | 85 | 96 | 0.0 | 3.0 | 0.00 | 0.23 | 0.00 | 79 | 1019.7 |
| 20260904152552 | 85 | 0 | 0.0 | 3.0 | 0.00 | 0.23 | 0.00 | 82 | 1019.7 |
| 20260904152052 | 84 | 0 | 0.0 | 1.0 | 0.00 | 0.23 | 0.00 | 84 | 1019.8 |
| 20260904151601 | 84 | 0 | 0.0 | 1.0 | 0.00 | 0.23 | 0.00 | 83 | 1019.7 |
| 20260904151052 | 83 | 0 | 0.0 | 0.0 | 0.00 | 0.23 | 0.00 | 85 | 1019.8 |
| 20260904150549 | 83 | 0 | 0.0 | 0.0 | 0.00 | 0.23 | 0.00 | 86 | 1019.7 |
| 20260904150103 | 82 | 0 | 0.0 | 0.0 | 0.00 | 0.23 | 0.00 | 86 | 1019.8 |
| 20260904145549 | 82 | 0 | 0.0 | 0.0 | 0.00 | 0.23 | 0.00 | 88 | 1019.8 |
| 20260904145053 | 82 | 0 | 0.0 | 0.0 | 0.00 | 0.23 | 0.00 | 90 | 1019.8 |
| 20260904144611 | 81 | 0 | 0.0 | 0.0 | 0.00 | 0.23 | 0.00 | 89 | 1019.8 |
| 20260904144053 | 81 | 0 | 0.0 | 0.0 | 0.00 | 0.23 | 0.00 | 90 | 1019.7 |
| 20260904143553 | 81 | 0 | 0.0 | 0.0 | 0.00 | 0.23 | 0.00 | 92 | 1019.5 |
| 20260904143109 | 81 | 0 | 0.0 | 0.0 | 0.00 | 0.23 | 0.00 | 94 | 1019.5 |
| 20260904142557 | 80 | 0 | 0.0 | 0.0 | 0.00 | 0.23 | 0.00 | 96 | 1019.7 |
| 20260904142053 | 80 | 0 | 0.0 | 0.0 | 0.00 | 0.23 | 0.00 | 96 | 1019.5 |
| 20260904141558 | 79 | 0 | 0.0 | 0.0 | 0.00 | 0.23 | 0.00 | 97 | 1019.6 |
| 20260904141053 | 79 | 0 | 0.0 | 0.0 | 0.00 | 0.23 | 0.00 | 99 | 1019.4 |
| 20260904140552 | 78 | 0 | 0.0 | 0.0 | 0.00 | 0.23 | 0.00 | 98 | 1019.4 |
| 20260904140107 | 77 | 0 | 0.0 | 0.0 | 0.00 | 0.23 | 0.00 | 98 | 1019.5 |
| 20260904135553 | 77 | 0 | 0.0 | 0.0 | 0.00 | 0.23 | 0.00 | 98 | 1019.4 |
| 20260904135049 | 77 | 0 | 0.0 | 0.0 | 0.00 | 0.23 | 0.00 | 99 | 1019.4 |
| 20260904134604 | 75 | 0 | 0.0 | 0.0 | 0.00 | 0.23 | 0.00 | 99 | 1019.3 |
| 20260904134055 | 74 | 0 | 0.0 | 0.0 | 0.00 | 0.23 | 0.00 | 98 | 1019.5 |
| 20260904133553 | 74 | 0 | 0.0 | 0.0 | 0.00 | 0.23 | 0.00 | 98 | 1019.5 |
| 20260904133111 | 74 | 0 | 0.0 | 0.0 | 0.00 | 0.23 | 0.00 | 98 | 1019.4 |
| 20260904132553 | 74 | 0 | 0.0 | 0.0 | 0.00 | 0.23 | 0.00 | 99 | 1019.3 |
| 20260904132049 | 74 | 0 | 0.0 | 0.0 | 0.00 | 0.23 | 0.00 | 99 | 1019.3 |
| 20260904131611 | 73 | 0 | 0.0 | 0.0 | 0.00 | 0.23 | 0.00 | 98 | 1019.2 |
| 20260904131053 | 73 | 0 | 0.0 | 1.0 | 0.00 | 0.23 | 0.00 | 98 | 1019.2 |
| 20260904130556 | 73 | 0 | 0.0 | 1.0 | 0.00 | 0.23 | 0.00 | 99 | 1019.3 |
| 20260904130109 | 72 | 0 | 0.0 | 0.0 | 0.00 | 0.23 | 0.00 | 99 | 1019.2 |
| 20260904125554 | 72 | 0 | 0.0 | 0.0 | 0.00 | 0.23 | 0.00 | 99 | 1019.3 |
| 20260904125053 | 71 | 0 | 0.0 | 0.0 | 0.00 | 0.23 | 0.00 | 98 | 1019.5 |
| 20260904124612 | 71 | 0 | 0.0 | 0.0 | 0.00 | 0.23 | 0.00 | 98 | 1019.4 |
| 20260904124052 | 71 | 0 | 0.0 | 0.0 | 0.00 | 0.23 | 0.00 | 98 | 1019.5 |
| 20260904123552 | 71 | 0 | 0.0 | 0.0 | 0.00 | 0.23 | 0.00 | 98 | 1019.2 |
| 20260904123116 | 70 | 0 | 0.0 | 0.0 | 0.00 | 0.23 | 0.00 | 98 | 1019.5 |
| 20260904122549 | 70 | 0 | 0.0 | 0.0 | 0.00 | 0.23 | 0.00 | 98 | 1019.2 |
| 20260904122056 | 70 | 0 | 0.0 | 0.0 | 0.00 | 0.23 | 0.00 | 98 | 1019.0 |
| 20260904121603 | 70 | 0 | 0.0 | 0.0 | 0.00 | 0.23 | 0.00 | 98 | 1019.2 |
| 20260904121056 | 70 | 0 | 0.0 | 0.0 | 0.00 | 0.23 | 0.00 | 98 | 1019.2 |
| 20260904120552 | 70 | 0 | 0.0 | 0.0 | 0.00 | 0.23 | 0.00 | 98 | 1019.1 |
| 20260904120105 | 70 | 0 | 0.0 | 0.0 | 0.00 | 0.23 | 0.00 | 98 | 1019.2 |
| 20260904115552 | 70 | 0 | 0.0 | 0.0 | 0.00 | 0.23 | 0.00 | 98 | 1019.0 |
| 20260904115053 | 70 | 0 | 0.0 | 0.0 | 0.00 | 0.23 | 0.00 | 98 | 1019.1 |
| 20260904114556 | 70 | 0 | 0.0 | 0.0 | 0.00 | 0.23 | 0.00 | 98 | 1019.2 |
| 20260904114053 | 70 | 0 | 0.0 | 0.0 | 0.00 | 0.23 | 0.00 | 98 | 1019.0 |
| 20260904113551 | 70 | 0 | 0.0 | 0.0 | 0.00 | 0.23 | 0.00 | 98 | 1018.8 |
| 20260904113101 | 70 | 0 | 0.0 | 0.0 | 0.00 | 0.23 | 0.00 | 98 | 1018.8 |
| 20260904112549 | 70 | 0 | 0.0 | 0.0 | 0.00 | 0.23 | 0.00 | 98 | 1018.7 |
| 20260904112052 | 70 | 0 | 0.0 | 0.0 | 0.00 | 0.23 | 0.00 | 98 | 1018.9 |
| 20260904111604 | 70 | 0 | 0.0 | 0.0 | 0.00 | 0.23 | 0.00 | 98 | 1018.6 |
| 20260904111053 | 70 | 0 | 0.0 | 0.0 | 0.00 | 0.23 | 0.00 | 98 | 1018.6 |
| 20260904110553 | 70 | 0 | 0.0 | 0.0 | 0.00 | 0.23 | 0.00 | 98 | 1018.7 |
| 20260904110109 | 70 | 0 | 0.0 | 0.0 | 0.00 | 0.23 | 0.00 | 98 | 1018.7 |
| 20260904105552 | 70 | 0 | 0.0 | 0.0 | 0.00 | 0.23 | 0.00 | 98 | 1018.6 |
| 20260904105051 | 70 | 0 | 0.0 | 0.0 | 0.00 | 0.23 | 0.00 | 98 | 1018.8 |
| 20260904104601 | 70 | 0 | 0.0 | 0.0 | 0.00 | 0.23 | 0.00 | 97 | 1018.5 |
| 20260904104049 | 70 | 0 | 0.0 | 0.0 | 0.00 | 0.23 | 0.00 | 98 | 1018.6 |
| 20260904103553 | 70 | 0 | 0.0 | 0.0 | 0.00 | 0.23 | 0.00 | 97 | 1018.6 |
| 20260904103105 | 70 | 0 | 0.0 | 0.0 | 0.00 | 0.23 | 0.00 | 97 | 1018.4 |
| 20260904102553 | 70 | 0 | 0.0 | 0.0 | 0.00 | 0.23 | 0.00 | 97 | 1018.4 |
| 20260904102052 | 71 | 0 | 0.0 | 0.0 | 0.00 | 0.23 | 0.00 | 97 | 1018.3 |
| 20260904101610 | 71 | 0 | 0.0 | 0.0 | 0.00 | 0.23 | 0.00 | 98 | 1018.1 |
| 20260904101052 | 71 | 0 | 0.0 | 0.0 | 0.00 | 0.23 | 0.00 | 98 | 1018.3 |
| 20260904100553 | 71 | 0 | 0.0 | 0.0 | 0.00 | 0.23 | 0.00 | 98 | 1018.1 |
| 20260904100101 | 71 | 0 | 0.0 | 0.0 | 0.00 | 0.23 | 0.00 | 98 | 1018.1 |
| 20260904095553 | 71 | 0 | 0.0 | 0.0 | 0.00 | 0.23 | 0.00 | 97 | 1018.2 |
| 20260904095055 | 71 | 0 | 0.0 | 0.0 | 0.00 | 0.23 | 0.00 | 97 | 1018.4 |
| 20260904094558 | 71 | 0 | 0.0 | 0.0 | 0.00 | 0.23 | 0.00 | 97 | 1018.3 |
| 20260904094049 | 71 | 0 | 0.0 | 0.0 | 0.00 | 0.23 | 0.00 | 97 | 1018.3 |
| 20260904093549 | 71 | 0 | 0.0 | 0.0 | 0.00 | 0.23 | 0.00 | 98 | 1018.3 |
| 20260904093117 | 71 | 0 | 0.0 | 0.0 | 0.00 | 0.23 | 0.00 | 97 | 1018.2 |
| 20260904092552 | 71 | 0 | 0.0 | 0.0 | 0.00 | 0.23 | 0.00 | 97 | 1018.2 |
| 20260904092049 | 71 | 0 | 0.0 | 0.0 | 0.00 | 0.23 | 0.00 | 97 | 1018.4 |
| 20260904091559 | 71 | 0 | 0.0 | 0.0 | 0.00 | 0.23 | 0.00 | 97 | 1018.1 |
| 20260904091053 | 71 | 0 | 0.0 | 1.0 | 0.00 | 0.23 | 0.00 | 97 | 1018.1 |
| 20260904090553 | 71 | 0 | 0.0 | 1.0 | 0.00 | 0.23 | 0.00 | 97 | 1018.1 |
| 20260904090059 | 71 | 0 | 0.0 | 0.0 | 0.00 | 0.23 | 0.00 | 97 | 1018.1 |
| 20260904085554 | 71 | 0 | 0.0 | 0.0 | 0.00 | 0.23 | 0.00 | 97 | 1018.0 |
| 20260904085052 | 71 | 0 | 0.0 | 0.0 | 0.00 | 0.23 | 0.00 | 97 | 1017.9 |
| 20260904084606 | 71 | 0 | 0.0 | 0.0 | 0.00 | 0.23 | 0.00 | 97 | 1018.1 |
| 20260904084056 | 71 | 0 | 0.0 | 0.0 | 0.00 | 0.23 | 0.00 | 97 | 1018.1 |
| 20260904083549 | 71 | 0 | 0.0 | 0.0 | 0.00 | 0.23 | 0.00 | 97 | 1018.0 |
| 20260904083103 | 71 | 0 | 0.0 | 0.0 | 0.00 | 0.23 | 0.00 | 97 | 1018.1 |
| 20260904082549 | 71 | 0 | 0.0 | 0.0 | 0.00 | 0.23 | 0.00 | 97 | 1018.1 |
| 20260904082049 | 72 | 0 | 0.0 | 0.0 | 0.00 | 0.23 | 0.00 | 97 | 1017.9 |
| 20260904081559 | 72 | 0 | 0.0 | 0.0 | 0.00 | 0.23 | 0.00 | 97 | 1017.9 |
| 20260904081056 | 72 | 0 | 0.0 | 0.0 | 0.00 | 0.23 | 0.00 | 97 | 1017.9 |
| 20260904080553 | 72 | 0 | 0.0 | 0.0 | 0.00 | 0.23 | 0.00 | 97 | 1017.9 |
| 20260904080106 | 72 | 0 | 0.0 | 0.0 | 0.00 | 0.23 | 0.00 | 97 | 1017.9 |
| 20260904075551 | 72 | 0 | 0.0 | 1.0 | 0.00 | 0.23 | 0.00 | 97 | 1017.9 |
| 20260904075052 | 72 | 0 | 0.0 | 1.0 | 0.00 | 0.23 | 0.00 | 97 | 1018.0 |
| 20260904074606 | 72 | 0 | 0.0 | 1.0 | 0.00 | 0.23 | 0.00 | 97 | 1018.0 |
| 20260904074051 | 72 | 0 | 0.0 | 0.0 | 0.00 | 0.23 | 0.00 | 97 | 1017.9 |
| 20260904073549 | 72 | 0 | 0.0 | 0.0 | 0.00 | 0.23 | 0.00 | 97 | 1017.9 |
| 20260904073100 | 72 | 0 | 0.0 | 0.0 | 0.00 | 0.23 | 0.00 | 97 | 1017.9 |
| 20260904072553 | 72 | 0 | 0.0 | 0.0 | 0.00 | 0.23 | 0.00 | 97 | 1017.8 |
| 20260904072053 | 72 | 0 | 0.0 | 0.0 | 0.00 | 0.23 | 0.00 | 97 | 1017.9 |
| 20260904071559 | 73 | 0 | 0.0 | 0.0 | 0.00 | 0.23 | 0.00 | 97 | 1017.8 |
| 20260904071052 | 73 | 0 | 0.0 | 0.0 | 0.00 | 0.23 | 0.00 | 97 | 1017.9 |
| 20260904070555 | 73 | 0 | 0.0 | 0.0 | 0.00 | 0.23 | 0.00 | 97 | 1018.0 |
| 20260904070059 | 73 | 0 | 0.0 | 0.0 | 0.00 | 0.23 | 0.00 | 97 | 1018.0 |
| 20260904065552 | 73 | 0 | 0.0 | 0.0 | 0.00 | 0.23 | 0.00 | 97 | 1018.0 |
| 20260904065056 | 73 | 0 | 0.0 | 0.0 | 0.00 | 0.23 | 0.00 | 97 | 1018.1 |
| 20260904064604 | 73 | 0 | 0.0 | 0.0 | 0.00 | 0.23 | 0.00 | 97 | 1018.1 |
| 20260904064049 | 73 | 0 | 0.0 | 0.0 | 0.00 | 0.23 | 0.00 | 97 | 1018.1 |
| 20260904063551 | 73 | 0 | 0.0 | 1.0 | 0.00 | 0.23 | 0.00 | 97 | 1018.2 |
| 20260904063101 | 73 | 0 | 0.0 | 1.0 | 0.00 | 0.23 | 0.00 | 97 | 1018.1 |
| 20260904062548 | 73 | 0 | 0.0 | 1.0 | 0.00 | 0.23 | 0.00 | 97 | 1018.2 |
| 20260904062052 | 73 | 0 | 0.0 | 0.0 | 0.00 | 0.23 | 0.00 | 97 | 1018.4 |
| 20260904061558 | 73 | 0 | 0.0 | 0.0 | 0.00 | 0.23 | 0.00 | 97 | 1018.3 |
| 20260904061050 | 73 | 0 | 0.0 | 0.0 | 0.00 | 0.23 | 0.00 | 96 | 1018.3 |
| 20260904060553 | 73 | 0 | 0.0 | 0.0 | 0.00 | 0.23 | 0.00 | 96 | 1018.2 |
| 20260904060100 | 73 | 0 | 0.0 | 0.0 | 0.00 | 0.23 | 0.00 | 96 | 1018.4 |
| 20260904055553 | 73 | 0 | 0.0 | 0.0 | 0.00 | 0.23 | 0.00 | 97 | 1018.3 |
| 20260904055054 | 73 | 0 | 0.0 | 0.0 | 0.00 | 0.23 | 0.00 | 96 | 1018.2 |
| 20260904054604 | 73 | 0 | 0.0 | 0.0 | 0.00 | 0.23 | 0.00 | 96 | 1018.2 |
| 20260904054048 | 73 | 0 | 0.0 | 0.0 | 0.00 | 0.23 | 0.00 | 96 | 1018.3 |
| 20260904053552 | 74 | 0 | 0.0 | 0.0 | 0.00 | 0.23 | 0.00 | 96 | 1018.5 |
| 20260904053101 | 74 | 0 | 0.0 | 0.0 | 0.00 | 0.23 | 0.00 | 96 | 1018.5 |
| 20260904052549 | 74 | 0 | 0.0 | 0.0 | 0.00 | 0.23 | 0.00 | 97 | 1018.5 |
| 20260904052059 | 74 | 0 | 0.0 | 0.0 | 0.00 | 0.23 | 0.00 | 97 | 1018.5 |
| 20260904051558 | 74 | 0 | 0.0 | 0.0 | 0.00 | 0.23 | 0.00 | 96 | 1018.6 |
| 20260904051054 | 74 | 0 | 0.0 | 0.0 | 0.00 | 0.23 | 0.00 | 96 | 1018.6 |
| 20260904050557 | 74 | 0 | 0.0 | 0.0 | 0.00 | 0.23 | 0.00 | 96 | 1018.5 |
| 20260904050108 | 74 | 0 | 0.0 | 0.0 | 0.00 | 0.23 | 0.00 | 96 | 1018.7 |
| 20260904045555 | 74 | 0 | 0.0 | 0.0 | 0.00 | 0.23 | 0.00 | 96 | 1018.9 |
| 20260904045055 | 74 | 0 | 0.0 | 0.0 | 0.00 | 0.23 | 0.00 | 96 | 1018.8 |
| 20260904044612 | 74 | 0 | 0.0 | 0.0 | 0.00 | 0.23 | 0.00 | 96 | 1018.8 |
| 20260904044053 | 74 | 0 | 0.0 | 0.0 | 0.00 | 0.23 | 0.00 | 96 | 1018.9 |
| 20260904043555 | 74 | 0 | 0.0 | 0.0 | 0.00 | 0.23 | 0.00 | 96 | 1018.8 |
| 20260904043100 | 74 | 0 | 0.0 | 0.0 | 0.00 | 0.23 | 0.00 | 96 | 1018.9 |
| 20260904042554 | 74 | 0 | 0.0 | 0.0 | 0.00 | 0.23 | 0.00 | 96 | 1018.8 |
| 20260904042054 | 74 | 0 | 0.0 | 0.0 | 0.00 | 0.23 | 0.00 | 96 | 1018.8 |
| 20260904041559 | 75 | 0 | 0.0 | 0.0 | 0.00 | 0.23 | 0.00 | 96 | 1019.0 |
| 20260904041055 | 75 | 0 | 0.0 | 0.0 | 0.00 | 0.23 | 0.00 | 96 | 1019.0 |
| 20260904040555 | 75 | 0 | 0.0 | 0.0 | 0.00 | 0.23 | 0.00 | 96 | 1018.9 |
| 20260904040059 | 75 | 0 | 0.0 | 0.0 | 0.00 | 0.23 | 0.00 | 96 | 1019.0 |
| 20260904035554 | 75 | 0 | 0.0 | 0.0 | 0.00 | 0.23 | 0.23 | 96 | 1019.0 |
| 20260904035054 | 75 | 0 | 0.0 | 0.0 | 0.00 | 0.23 | 0.23 | 96 | 1019.0 |
| 20260904034605 | 75 | 0 | 0.0 | 0.0 | 0.00 | 0.23 | 0.23 | 96 | 1018.9 |
| 20260904034054 | 75 | 0 | 0.0 | 0.0 | 0.00 | 0.23 | 0.23 | 96 | 1018.9 |
| 20260904033556 | 75 | 0 | 0.0 | 0.0 | 0.00 | 0.23 | 0.23 | 96 | 1019.0 |
| 20260904033100 | 75 | 0 | 0.0 | 0.0 | 0.00 | 0.23 | 0.23 | 96 | 1019.0 |
| 20260904032554 | 75 | 0 | 0.0 | 0.0 | 0.00 | 0.23 | 0.23 | 96 | 1019.0 |
| 20260904032053 | 75 | 0 | 0.0 | 0.0 | 0.00 | 0.23 | 0.23 | 95 | 1019.1 |
| 20260904031557 | 75 | 0 | 0.0 | 0.0 | 0.00 | 0.23 | 0.23 | 95 | 1019.1 |
| 20260904031054 | 75 | 0 | 0.0 | 1.0 | 0.00 | 0.23 | 0.23 | 95 | 1019.2 |
| 20260904030554 | 75 | 0 | 0.0 | 4.0 | 0.00 | 0.23 | 0.23 | 96 | 1019.2 |
| 20260904030107 | 75 | 0 | 0.0 | 4.0 | 0.00 | 0.23 | 0.23 | 96 | 1019.2 |
| 20260904025551 | 75 | 0 | 0.0 | 1.0 | 0.00 | 0.23 | 0.23 | 95 | 1019.2 |
| 20260904025054 | 75 | 0 | 0.0 | 0.0 | 0.00 | 0.23 | 0.23 | 95 | 1019.1 |
| 20260904024601 | 75 | 0 | 0.0 | 0.0 | 0.00 | 0.23 | 0.23 | 95 | 1019.1 |
| 20260904024051 | 75 | 0 | 0.0 | 0.0 | 0.00 | 0.23 | 0.23 | 95 | 1019.1 |
| 20260904023553 | 75 | 0 | 0.0 | 0.0 | 0.00 | 0.23 | 0.23 | 95 | 1019.1 |
| 20260904023103 | 75 | 0 | 0.0 | 0.0 | 0.00 | 0.23 | 0.23 | 95 | 1019.2 |
| 20260904022551 | 75 | 0 | 0.0 | 0.0 | 0.00 | 0.23 | 0.23 | 95 | 1019.1 |
| 20260904022055 | 75 | 0 | 0.0 | 0.0 | 0.00 | 0.23 | 0.23 | 95 | 1019.1 |
| 20260904021600 | 75 | 0 | 0.0 | 0.0 | 0.00 | 0.23 | 0.23 | 95 | 1019.0 |
| 20260904021050 | 75 | 0 | 0.0 | 0.0 | 0.00 | 0.23 | 0.23 | 95 | 1018.9 |
| 20260904020554 | 75 | 0 | 0.0 | 0.0 | 0.00 | 0.23 | 0.23 | 94 | 1018.9 |
| 20260904020058 | 75 | 0 | 0.0 | 1.0 | 0.00 | 0.23 | 0.23 | 94 | 1018.9 |
| 20260904015554 | 75 | 0 | 0.0 | 1.0 | 0.00 | 0.23 | 0.23 | 94 | 1019.0 |
| 20260904015054 | 76 | 0 | 0.0 | 0.0 | 0.00 | 0.23 | 0.23 | 93 | 1018.9 |
| 20260904014605 | 76 | 0 | 0.0 | 0.0 | 0.00 | 0.23 | 0.23 | 93 | 1018.8 |
| 20260904014053 | 76 | 0 | 0.0 | 1.0 | 0.00 | 0.23 | 0.23 | 94 | 1018.8 |
| 20260904013550 | 76 | 0 | 0.0 | 1.0 | 0.00 | 0.23 | 0.23 | 93 | 1018.7 |
| 20260904013100 | 76 | 0 | 0.0 | 2.0 | 0.00 | 0.23 | 0.23 | 93 | 1018.6 |
| 20260904012551 | 76 | 0 | 0.0 | 2.0 | 0.00 | 0.23 | 0.23 | 93 | 1018.5 |
| 20260904012051 | 76 | 133 | 0.0 | 2.0 | 0.00 | 0.23 | 0.23 | 93 | 1018.5 |
| 20260904011612 | 76 | 0 | 0.0 | 1.0 | 0.00 | 0.23 | 0.23 | 93 | 1018.4 |
| 20260904011050 | 76 | 0 | 0.0 | 1.0 | 0.00 | 0.23 | 0.23 | 93 | 1018.3 |
| 20260904010557 | 76 | 0 | 0.0 | 1.0 | 0.00 | 0.23 | 0.23 | 93 | 1018.3 |
| 20260904010113 | 76 | 0 | 0.0 | 1.0 | 0.00 | 0.23 | 0.23 | 93 | 1018.3 |
| 20260904005550 | 76 | 0 | 0.0 | 0.0 | 0.00 | 0.23 | 0.23 | 92 | 1018.1 |
| 20260904005054 | 76 | 0 | 0.0 | 0.0 | 0.00 | 0.23 | 0.23 | 92 | 1018.0 |
| 20260904004604 | 76 | 0 | 0.0 | 0.0 | 0.00 | 0.23 | 0.23 | 91 | 1017.8 |
| 20260904004055 | 76 | 0 | 0.0 | 0.0 | 0.00 | 0.23 | 0.23 | 91 | 1017.7 |
| 20260904003555 | 76 | 0 | 0.0 | 0.0 | 0.00 | 0.23 | 0.23 | 91 | 1017.7 |
| 20260904003100 | 77 | 0 | 0.0 | 0.0 | 0.00 | 0.23 | 0.23 | 91 | 1017.7 |
| 20260904002551 | 77 | 0 | 0.0 | 0.0 | 0.00 | 0.23 | 0.23 | 91 | 1017.6 |
| 20260904002054 | 77 | 0 | 0.0 | 0.0 | 0.00 | 0.23 | 0.23 | 91 | 1017.6 |
| 20260904001559 | 77 | 0 | 0.0 | 0.0 | 0.00 | 0.23 | 0.23 | 91 | 1017.5 |
| 20260904001050 | 77 | 0 | 0.0 | 0.0 | 0.00 | 0.23 | 0.23 | 91 | 1017.6 |
| 20260904000550 | 77 | 0 | 0.0 | 0.0 | 0.00 | 0.23 | 0.23 | 90 | 1017.6 |
| 20260904000105 | 77 | 0 | 0.0 | 0.0 | 0.00 | 0.23 | 0.23 | 90 | 1017.6 |
| 20260903235555 | 77 | 0 | 0.0 | 1.0 | 0.00 | 0.23 | 0.23 | 90 | 1017.4 |
| 20260903235050 | 77 | 0 | 0.0 | 1.0 | 0.00 | 0.23 | 0.23 | 90 | 1017.5 |
| 20260903234604 | 77 | 194 | 0.0 | 2.0 | 0.00 | 0.23 | 0.23 | 89 | 1017.3 |
| 20260903234054 | 77 | 0 | 0.0 | 2.0 | 0.00 | 0.23 | 0.23 | 88 | 1017.3 |
| 20260903233553 | 77 | 194 | 1.0 | 2.0 | 0.00 | 0.23 | 0.23 | 88 | 1017.3 |
| 20260903233100 | 77 | 194 | 0.0 | 2.0 | 0.00 | 0.23 | 0.23 | 89 | 1017.3 |
| 20260903232552 | 78 | 0 | 1.0 | 2.0 | 0.00 | 0.23 | 0.23 | 90 | 1017.3 |
| 20260903232051 | 78 | 194 | 0.0 | 2.0 | 0.00 | 0.23 | 0.23 | 90 | 1017.3 |
| 20260903231606 | 78 | 0 | 0.0 | 2.0 | 0.00 | 0.23 | 0.23 | 91 | 1017.2 |
| 20260903231054 | 79 | 0 | 0.0 | 2.0 | 0.00 | 0.23 | 0.23 | 91 | 1017.3 |
| 20260903230554 | 79 | 194 | 0.0 | 2.0 | 0.00 | 0.23 | 0.23 | 91 | 1017.1 |
| 20260903230108 | 79 | 180 | 0.0 | 1.0 | 0.00 | 0.23 | 0.23 | 94 | 1017.1 |
| 20260903225550 | 79 | 0 | 0.0 | 1.0 | 0.00 | 0.23 | 0.23 | 94 | 1017.2 |
| 20260903225056 | 79 | 0 | 0.0 | 1.0 | 0.00 | 0.23 | 0.23 | 94 | 1017.3 |
| 20260903224602 | 79 | 0 | 0.0 | 1.0 | 0.00 | 0.23 | 0.23 | 93 | 1017.4 |
| 20260903224054 | 79 | 0 | 0.0 | 0.0 | 0.00 | 0.23 | 0.23 | 93 | 1017.4 |
| 20260903223551 | 79 | 0 | 0.0 | 1.0 | 0.00 | 0.23 | 0.23 | 93 | 1017.4 |
| 20260903223101 | 79 | 0 | 0.0 | 1.0 | 0.00 | 0.23 | 0.23 | 92 | 1017.4 |
| 20260903222550 | 79 | 0 | 0.0 | 1.0 | 0.00 | 0.23 | 0.23 | 92 | 1017.4 |
| 20260903222053 | 79 | 0 | 0.0 | 0.0 | 0.00 | 0.23 | 0.23 | 92 | 1017.4 |
| 20260903221603 | 79 | 0 | 0.0 | 0.0 | 0.00 | 0.23 | 0.23 | 92 | 1017.4 |
| 20260903221050 | 79 | 0 | 0.0 | 0.0 | 0.00 | 0.23 | 0.23 | 93 | 1017.4 |
| 20260903220552 | 79 | 0 | 0.0 | 0.0 | 0.00 | 0.23 | 0.23 | 95 | 1017.3 |